This demonstration page uses our WeatherBlox Daily Observations layout. Learn more.

Left ArrowRight Arrow

Hourly Observations for November 26, 2022

Temp ( °F °C ) Dew Point ( °F °C ) Humidity (%) Winds ( mph kmh ) Pressure ( in mb ) Visibility ( mi km ) Precip ( " mm )
12:03 am 00:03 Cloudy 56 13.3 52 11.1 87 87 E 14 22 30.05 1018 10 16 0.00 0.00
12:53 am 00:53 Cloudy 55 12.8 52 11.1 89 89 ENE 7 11 30.03 1017 10 16 0.00 0.00
1:25 am 01:25 Cloudy with Drizzle 54 12.2 53 11.7 97 97 VRB 5 7 30.04 1017 3 4 0.01 0.13
1:53 am 01:53 Cloudy with Drizzle 54 12.2 53 11.7 97 97 ENE 3 6 30.01 1016 3 4 0.01 0.25
2:24 am 02:24 Cloudy with Drizzle 54 12.2 53 11.7 97 97 NNE 5 7 30.01 1016 3 5 0.01 0.13
2:53 am 02:53 Cloudy with Light Rain 54 12.2 54 12.2 100 100 NNE 5 7 29.98 1015 3 4 0.01 0.25
3:28 am 03:28 Cloudy with Rain 54 12.2 53 11.7 97 97 ENE 5 7 29.99 1016 4 6 0.05 1.27
3:53 am 03:53 Cloudy with Light Rain 54 12.2 53 11.7 97 97 NE 7 11 29.94 1014 6 10 0.11 2.79
4:53 am 04:53 Cloudy with Heavy Rain 54 12.2 52 11.1 93 93 ENE 3 6 29.94 1014 3 5 0.04 1.02
5:53 am 05:53 Cloudy with Rain 53 11.7 53 11.7 100 100 N 3 6 29.91 1013 4 6 0.23 5.84
6:58 am 06:58 Cloudy with Heavy Rain 53 11.7 52 11.1 96 96 WSW 6 9 29.92 1013 2 3 0.04 1.02
7:10 am 07:10 Cloudy with Rain 53 11.7 53 11.7 100 100 W 5 7 29.92 1013 3 5 0.17 4.32
7:14 am 07:14 Cloudy with Heavy Rain 53 11.7 53 11.7 100 100 W 5 7 29.92 1013 3 4 0.19 4.83
7:53 am 07:53 Cloudy with Rain 53 11.7 52 11.1 96 96 NNW 9 15 29.90 1012 2 3 0.37 9.40
8:15 am 08:15 Cloudy with Light Rain 53 11.7 52 11.1 96 96 NNE 7 11 29.88 1012 4 6 0.05 1.27
8:53 am 08:53 Cloudy with Light Rain 53 11.7 52 11.1 96 96 N 3 6 29.86 1011 5 8 0.06 1.52
9:13 am 09:13 Cloudy with Light Rain 54 12.2 52 11.1 93 93 Calm 29.86 1011 3 4 0.01 0.13
9:28 am 09:28 Cloudy with Light Rain 54 12.2 53 11.7 97 97 Calm 29.85 1011 2 3 0.01 0.25
9:39 am 09:39 Cloudy with Light Rain 54 12.2 53 11.7 97 97 N 3 6 29.84 1011 3 4 0.02 0.51
9:53 am 09:53 Cloudy with Mist and Fog 54 12.2 53 11.7 97 97 Calm 29.82 1010 6 10 0.02 0.51
10:53 am 10:53 Cloudy with Mist and Fog 55 12.8 53 11.7 93 93 W 5 7 29.79 1009 6 10 0.00 0.00
11:53 am 11:53 Cloudy 55 12.8 53 11.7 93 93 WSW 7 11 29.76 1008 7 11 0.00 0.00
12:53 pm 12:53 Cloudy 53 11.7 51 10.6 93 93 WSW 8 13 29.73 1007 10 16 0.00 0.00
1:47 pm 13:47 Cloudy with Mist and Fog 54 12 52 11 94 94 WSW 8 13 29.71 1006 3 4 0.00 0.00
1:53 pm 13:53 Cloudy with Light Rain 53 11.7 51 10.6 93 93 SW 8 13 29.70 1006 3 4 0.01 0.13
2:04 pm 14:04 Cloudy with Light Rain 52 11.1 50 10 93 93 WSW 15 24 29.72 1006 5 8 0.01 0.13
2:45 pm 14:45 Cloudy with Light Rain 50 10 48 8.9 93 93 WSW 15 24 29.73 1007 4 6 0.01 0.13
2:53 pm 14:53 Cloudy with Light Rain 50 10 48 8.9 93 93 WSW 12 19 29.71 1006 3 5 0.01 0.13
3:05 pm 15:05 Cloudy with Light Rain 50 10 48 8.9 93 93 WSW 13 20 29.73 1007 3 4 0.01 0.25
3:18 pm 15:18 Cloudy with Light Rain 50 10 48 8.9 93 93 WSW 13 20 29.74 1007 4 6 0.01 0.25
3:53 pm 15:53 Cloudy with Light Rain 49 9.4 47 8.3 93 93 WSW 10 17 29.73 1007 10 16 0.04 1.02
4:28 pm 16:28 Mostly Cloudy 50 10 47 8.3 89 89 WSW 9 15 29.75 1007 10 16 0.01 0.25
4:53 pm 16:53 Cloudy 50 10 46 7.8 86 86 WSW 9 15 29.74 1007 10 16 0.01 0.25
5:00 pm 17:00 Cloudy 50 10 47 8.3 89 89 SW 8 13 29.75 1007 10 16 0.00 0.00
5:53 pm 17:53 Cloudy 50 10 46 7.8 86 86 WSW 9 15 29.72 1006 10 16 0.00 0.00
6:20 pm 18:20 Cloudy 50 10 45 7.2 83 83 WSW 8 13 29.73 1007 10 16 0.00 0.00
6:53 pm 18:53 Cloudy 50 10 45 7.2 83 83 SW 9 15 29.72 1006 10 16 0.00 0.00
7:53 pm 19:53 Cloudy 49 9.4 45 7.2 86 86 SW 9 15 29.72 1007 10 16 0.00 0.00
8:53 pm 20:53 Cloudy 49 9.4 44 6.7 83 83 SW 9 15 29.74 1007 10 16 0.01 0.13
9:53 pm 21:53 Mostly Cloudy 49 9.4 44 6.7 83 83 WSW 8 13 29.73 1007 10 16 0.00 0.00
10:53 pm 22:53 Mostly Clear 48 8.9 44 6.7 86 86 WSW 6 9 29.75 1007 10 16 0.00 0.00
11:53 pm 23:53 Mostly Clear 48 8.9 44 6.7 86 86 SW 6 9 29.76 1008 10 16 0.00 0.00

Powered by AerisWeather